Time,TemperatureF,DewpointF,PressureIn,WindDirection,WindDirectionDegrees,WindSpeedMPH,WindSpeedGustMPH,Humidity,HourlyPrecipIn,Conditions,Clouds,dailyrainin,SoftwareType,DateUTC
2013-07-16 00:01:00,72.0,67.0,-100.00,West,270,0.0,-999.0,82,-99.99,,,-99.99,,2013-07-16 05:01:00,
2013-07-16 00:22:00,72.0,67.0,-100.00,WSW,247,1.0,-999.0,84,-99.99,,,-99.99,,2013-07-16 05:22:00,
2013-07-16 00:32:00,72.0,67.0,-100.00,South,180,0.0,-999.0,85,-99.99,,,-99.99,,2013-07-16 05:32:00,
2013-07-16 00:43:00,72.0,67.0,-100.00,South,180,0.0,-999.0,85,-99.99,,,-99.99,,2013-07-16 05:43:00,
2013-07-16 00:52:00,70.0,67.0,-100.00,South,180,2.0,-999.0,89,-99.99,,,-99.99,,2013-07-16 05:52:00,
2013-07-16 01:01:00,70.0,67.0,-100.00,South,180,2.0,-999.0,89,-99.99,,,-99.99,,2013-07-16 06:01:00,
2013-07-16 01:22:00,69.0,66.0,-100.00,SE,135,2.0,-999.0,92,-99.99,,,-99.99,,2013-07-16 06:22:00,
2013-07-16 01:31:00,69.0,67.0,-100.00,SSE,157,2.0,-999.0,94,-99.99,,,-99.99,,2013-07-16 06:31:00,
2013-07-16 01:43:00,69.0,67.0,-100.00,SSE,157,2.0,-999.0,94,-99.99,,,-99.99,,2013-07-16 06:43:00,
2013-07-16 01:52:00,69.0,67.0,-100.00,South,180,1.0,-999.0,95,-99.99,,,-99.99,,2013-07-16 06:52:00,
2013-07-16 02:01:00,69.0,67.0,-100.00,ESE,112,2.0,-999.0,94,-99.99,,,-99.99,,2013-07-16 07:01:00,
2013-07-16 02:11:00,69.0,67.0,-100.00,ESE,112,2.0,-999.0,94,-99.99,,,-99.99,,2013-07-16 07:11:00,
2013-07-16 02:22:00,69.0,67.0,-100.00,South,180,2.0,-999.0,94,-99.99,,,-99.99,,2013-07-16 07:22:00,
2013-07-16 02:32:00,69.0,66.0,-100.00,SSE,157,3.0,-999.0,93,-99.99,,,-99.99,,2013-07-16 07:32:00,
2013-07-16 02:43:00,69.0,66.0,-100.00,SSE,157,3.0,-999.0,93,-99.99,,,-99.99,,2013-07-16 07:43:00,
2013-07-16 02:52:00,67.0,66.0,-100.00,South,180,3.0,-999.0,98,-99.99,,,-99.99,,2013-07-16 07:52:00,
2013-07-16 03:01:00,68.0,66.0,-100.00,South,180,3.0,-999.0,93,-99.99,,,-99.99,,2013-07-16 08:01:00,
2013-07-16 03:22:00,68.0,66.0,-100.00,SSE,157,3.0,-999.0,95,-99.99,,,-99.99,,2013-07-16 08:22:00,
2013-07-16 03:32:00,69.0,67.0,-100.00,SSE,157,4.0,-999.0,94,-99.99,,,-99.99,,2013-07-16 08:32:00,
2013-07-16 03:43:00,69.0,67.0,-100.00,SSE,157,4.0,-999.0,94,-99.99,,,-99.99,,2013-07-16 08:43:00,
2013-07-16 03:52:00,69.0,66.0,-100.00,SSE,157,3.0,-999.0,92,-99.99,,,-99.99,,2013-07-16 08:52:00,
2013-07-16 04:01:00,68.0,67.0,-100.00,South,180,3.0,-999.0,94,-99.99,,,-99.99,,2013-07-16 09:01:00,
2013-07-16 04:12:00,68.0,67.0,-100.00,South,180,3.0,-999.0,94,-99.99,,,-99.99,,2013-07-16 09:12:00,
2013-07-16 04:22:00,68.0,66.0,-100.00,South,180,3.0,-999.0,93,-99.99,,,-99.99,,2013-07-16 09:22:00,
2013-07-16 04:32:00,68.0,66.0,-100.00,South,180,2.0,-999.0,95,-99.99,,,-99.99,,2013-07-16 09:32:00,
2013-07-16 04:42:00,68.0,66.0,-100.00,South,180,2.0,-999.0,95,-99.99,,,-99.99,,2013-07-16 09:42:00,
2013-07-16 04:52:00,67.0,66.0,-100.00,SSW,202,2.0,-999.0,96,-99.99,,,-99.99,,2013-07-16 09:52:00,
2013-07-16 05:01:00,67.0,66.0,-100.00,South,180,2.0,-999.0,97,-99.99,,,-99.99,,2013-07-16 10:01:00,
2013-07-16 05:22:00,67.0,66.0,-100.00,South,180,2.0,-999.0,97,-99.99,,,-99.99,,2013-07-16 10:22:00,
2013-07-16 05:31:00,67.0,66.0,-100.00,SSW,202,1.0,-999.0,96,-99.99,,,-99.99,,2013-07-16 10:31:00,
2013-07-16 05:43:00,67.0,66.0,-100.00,SSW,202,1.0,-999.0,96,-99.99,,,-99.99,,2013-07-16 10:43:00,
2013-07-16 05:52:00,67.0,66.0,-100.00,South,180,2.0,-999.0,97,-99.99,,,-99.99,,2013-07-16 10:52:00,
2013-07-16 06:01:00,67.0,65.0,-100.00,South,180,2.0,-999.0,96,-99.99,,,-99.99,,2013-07-16 11:01:00,
2013-07-16 06:11:00,67.0,65.0,-100.00,South,180,2.0,-999.0,96,-99.99,,,-99.99,,2013-07-16 11:11:00,
2013-07-16 06:22:00,67.0,65.0,-100.00,SSE,157,2.0,-999.0,95,-99.99,,,-99.99,,2013-07-16 11:22:00,
2013-07-16 06:32:00,66.0,65.0,-100.00,SSW,202,2.0,-999.0,97,-99.99,,,-99.99,,2013-07-16 11:32:00,
2013-07-16 06:42:00,66.0,65.0,-100.00,SSW,202,2.0,-999.0,97,-99.99,,,-99.99,,2013-07-16 11:42:00,
2013-07-16 06:52:00,66.0,65.0,-100.00,SSE,157,1.0,-999.0,97,-99.99,,,-99.99,,2013-07-16 11:52:00,
2013-07-16 07:01:00,67.0,65.0,-100.00,SSE,157,1.0,-999.0,94,-99.99,,,-99.99,,2013-07-16 12:01:00,
2013-07-16 07:11:00,67.0,65.0,-100.00,SSE,157,1.0,-999.0,94,-99.99,,,-99.99,,2013-07-16 12:11:00,
2013-07-16 07:22:00,68.0,65.0,-100.00,South,180,2.0,-999.0,91,-99.99,,,-99.99,,2013-07-16 12:22:00,
2013-07-16 07:32:00,69.0,65.0,-100.00,South,180,2.0,-999.0,89,-99.99,,,-99.99,,2013-07-16 12:32:00,
2013-07-16 07:43:00,69.0,65.0,-100.00,South,180,2.0,-999.0,89,-99.99,,,-99.99,,2013-07-16 12:43:00,
2013-07-16 07:53:00,70.0,66.0,-100.00,South,180,2.0,-999.0,87,-99.99,,,-99.99,,2013-07-16 12:53:00,
2013-07-16 08:01:00,71.0,65.0,-100.00,South,180,2.0,-999.0,82,-99.99,,,-99.99,,2013-07-16 13:01:00,
2013-07-16 08:21:00,72.0,65.0,-100.00,SSW,202,4.0,-999.0,79,-99.99,,,-99.99,,2013-07-16 13:21:00,
2013-07-16 08:32:00,73.0,65.0,-100.00,SSE,157,2.0,-999.0,76,-99.99,,,-99.99,,2013-07-16 13:32:00,
2013-07-16 08:42:00,73.0,65.0,-100.00,SSE,157,2.0,-999.0,76,-99.99,,,-99.99,,2013-07-16 13:42:00,
2013-07-16 08:52:00,74.0,64.0,-100.00,South,180,3.0,-999.0,71,-99.99,,,-99.99,,2013-07-16 13:52:00,
2013-07-16 09:01:00,75.0,64.0,-100.00,South,180,3.0,-999.0,69,-99.99,,,-99.99,,2013-07-16 14:01:00,
2013-07-16 09:11:00,75.0,64.0,-100.00,South,180,3.0,-999.0,69,-99.99,,,-99.99,,2013-07-16 14:11:00,
2013-07-16 09:21:00,75.0,64.0,-100.00,SSE,157,5.0,-999.0,67,-99.99,,,-99.99,,2013-07-16 14:21:00,
2013-07-16 09:42:00,76.0,64.0,-100.00,SSW,202,4.0,-999.0,65,-99.99,,,-99.99,,2013-07-16 14:42:00,
2013-07-16 09:52:00,76.0,64.0,-100.00,South,180,2.0,-999.0,64,-99.99,,,-99.99,,2013-07-16 14:52:00,
2013-07-16 10:01:00,78.0,64.0,-100.00,South,180,3.0,-999.0,62,-99.99,,,-99.99,,2013-07-16 15:01:00,
2013-07-16 10:21:00,78.0,64.0,-100.00,SSE,157,4.0,-999.0,60,-99.99,,,-99.99,,2013-07-16 15:21:00,
2013-07-16 10:32:00,80.0,64.0,-100.00,SSE,157,4.0,-999.0,58,-99.99,,,-99.99,,2013-07-16 15:32:00,
2013-07-16 10:43:00,80.0,64.0,-100.00,SSE,157,4.0,-999.0,58,-99.99,,,-99.99,,2013-07-16 15:43:00,
2013-07-16 10:53:00,81.0,63.0,-100.00,South,180,3.0,-999.0,54,-99.99,,,-99.99,,2013-07-16 15:53:00,
2013-07-16 11:01:00,81.0,63.0,-100.00,South,180,6.0,-999.0,55,-99.99,,,-99.99,,2013-07-16 16:01:00,
2013-07-16 11:21:00,82.0,63.0,-100.00,SSE,157,3.0,-999.0,52,-99.99,,,-99.99,,2013-07-16 16:21:00,
2013-07-16 11:32:00,82.0,61.0,-100.00,SSW,202,3.0,-999.0,49,-99.99,,,-99.99,,2013-07-16 16:32:00,
2013-07-16 11:43:00,82.0,61.0,-100.00,SSW,202,3.0,-999.0,49,-99.99,,,-99.99,,2013-07-16 16:43:00,
2013-07-16 11:52:00,83.0,63.0,-100.00,SSE,157,3.0,-999.0,50,-99.99,,,-99.99,,2013-07-16 16:52:00,
2013-07-16 12:02:00,83.0,63.0,-100.00,SSE,157,5.0,-999.0,50,-99.99,,,-99.99,,2013-07-16 17:02:00,
2013-07-16 12:12:00,83.0,63.0,-100.00,SSE,157,5.0,-999.0,50,-99.99,,,-99.99,,2013-07-16 17:12:00,
2013-07-16 12:22:00,84.0,62.0,-100.00,SSE,157,3.0,-999.0,48,-99.99,,,-99.99,,2013-07-16 17:22:00,
2013-07-16 12:32:00,84.0,62.0,-100.00,SSE,157,3.0,-999.0,48,-99.99,,,-99.99,,2013-07-16 17:32:00,
2013-07-16 12:43:00,84.0,62.0,-100.00,SSW,202,3.0,-999.0,47,-99.99,,,-99.99,,2013-07-16 17:43:00,
2013-07-16 12:53:00,85.0,62.0,-100.00,SSE,157,6.0,-999.0,47,-99.99,,,-99.99,,2013-07-16 17:53:00,
2013-07-16 13:01:00,85.0,63.0,-100.00,South,180,3.0,-999.0,48,-99.99,,,-99.99,,2013-07-16 18:01:00,
2013-07-16 13:11:00,85.0,63.0,-100.00,South,180,3.0,-999.0,48,-99.99,,,-99.99,,2013-07-16 18:11:00,
2013-07-16 13:22:00,85.0,63.0,-100.00,South,180,3.0,-999.0,48,-99.99,,,-99.99,,2013-07-16 18:22:00,
2013-07-16 13:32:00,86.0,63.0,-100.00,SSE,157,3.0,-999.0,46,-99.99,,,-99.99,,2013-07-16 18:32:00,
2013-07-16 13:43:00,86.0,63.0,-100.00,SSE,157,3.0,-999.0,46,-99.99,,,-99.99,,2013-07-16 18:43:00,
2013-07-16 13:52:00,85.0,63.0,-100.00,SSE,157,6.0,-999.0,47,-99.99,,,-99.99,,2013-07-16 18:52:00,
2013-07-16 14:01:00,87.0,62.0,-100.00,SSE,157,6.0,-999.0,44,-99.99,,,-99.99,,2013-07-16 19:01:00,
2013-07-16 14:11:00,87.0,62.0,-100.00,SSE,157,6.0,-999.0,44,-99.99,,,-99.99,,2013-07-16 19:11:00,
2013-07-16 14:22:00,87.0,63.0,-100.00,South,180,7.0,-999.0,45,-99.99,,,-99.99,,2013-07-16 19:22:00,
2013-07-16 14:32:00,87.0,62.0,-100.00,South,180,4.0,-999.0,44,-99.99,,,-99.99,,2013-07-16 19:32:00,
2013-07-16 14:43:00,87.0,62.0,-100.00,South,180,4.0,-999.0,44,-99.99,,,-99.99,,2013-07-16 19:43:00,
2013-07-16 14:52:00,87.0,62.0,-100.00,South,180,7.0,-999.0,43,-99.99,,,-99.99,,2013-07-16 19:52:00,
2013-07-16 15:03:00,89.0,63.0,-100.00,SSW,202,3.0,-999.0,42,-99.99,,,-99.99,,2013-07-16 20:03:00,
2013-07-16 15:11:00,89.0,63.0,-100.00,SSW,202,3.0,-999.0,42,-99.99,,,-99.99,,2013-07-16 20:11:00,
2013-07-16 15:22:00,88.0,62.0,-100.00,SSE,157,3.0,-999.0,43,-99.99,,,-99.99,,2013-07-16 20:22:00,
2013-07-16 15:32:00,87.0,63.0,-100.00,SSE,157,5.0,-999.0,44,-99.99,,,-99.99,,2013-07-16 20:32:00,
2013-07-16 15:43:00,87.0,63.0,-100.00,SSE,157,5.0,-999.0,44,-99.99,,,-99.99,,2013-07-16 20:43:00,
2013-07-16 15:52:00,89.0,63.0,-100.00,South,180,5.0,-999.0,42,-99.99,,,-99.99,,2013-07-16 20:52:00,
2013-07-16 16:01:00,89.0,63.0,-100.00,South,180,5.0,-999.0,42,-99.99,,,-99.99,,2013-07-16 21:01:00,
2013-07-16 16:22:00,89.0,64.0,-100.00,SSW,202,3.0,-999.0,43,-99.99,,,-99.99,,2013-07-16 21:22:00,
2013-07-16 16:43:00,89.0,63.0,-100.00,South,180,7.0,-999.0,42,-99.99,,,-99.99,,2013-07-16 21:43:00,
2013-07-16 16:52:00,89.0,63.0,-100.00,SSE,157,7.0,-999.0,42,-99.99,,,-99.99,,2013-07-16 21:52:00,
2013-07-16 17:01:00,89.0,63.0,-100.00,SSE,157,6.0,-999.0,43,-99.99,,,-99.99,,2013-07-16 22:01:00,
2013-07-16 17:22:00,89.0,62.0,-100.00,South,180,5.0,-999.0,41,-99.99,,,-99.99,,2013-07-16 22:22:00,
2013-07-16 17:33:00,88.0,62.0,-100.00,South,180,5.0,-999.0,43,-99.99,,,-99.99,,2013-07-16 22:33:00,
2013-07-16 17:43:00,88.0,62.0,-100.00,South,180,5.0,-999.0,43,-99.99,,,-99.99,,2013-07-16 22:43:00,
2013-07-16 17:52:00,88.0,62.0,-100.00,South,180,4.0,-999.0,42,-99.99,,,-99.99,,2013-07-16 22:52:00,
2013-07-16 18:01:00,87.0,63.0,-100.00,South,180,4.0,-999.0,44,-99.99,,,-99.99,,2013-07-16 23:01:00,
2013-07-16 18:11:00,87.0,63.0,-100.00,South,180,4.0,-999.0,44,-99.99,,,-99.99,,2013-07-16 23:11:00,
2013-07-16 18:22:00,89.0,63.0,-100.00,SSE,157,8.0,-999.0,42,-99.99,,,-99.99,,2013-07-16 23:22:00,
2013-07-16 18:32:00,89.0,63.0,-100.00,SSE,157,7.0,-999.0,42,-99.99,,,-99.99,,2013-07-16 23:32:00,
2013-07-16 18:43:00,89.0,63.0,-100.00,SSE,157,7.0,-999.0,42,-99.99,,,-99.99,,2013-07-16 23:43:00,
2013-07-16 18:52:00,88.0,63.0,-100.00,SSE,157,9.0,-999.0,43,-99.99,,,-99.99,,2013-07-16 23:52:00,
2013-07-16 19:01:00,88.0,63.0,-100.00,SSE,157,6.0,-999.0,43,-99.99,,,-99.99,,2013-07-17 00:01:00,
2013-07-16 19:22:00,87.0,63.0,-100.00,South,180,6.0,-999.0,44,-99.99,,,-99.99,,2013-07-17 00:22:00,
2013-07-16 19:33:00,87.0,63.0,-100.00,SSE,157,4.0,-999.0,45,-99.99,,,-99.99,,2013-07-17 00:33:00,
2013-07-16 19:42:00,87.0,63.0,-100.00,SSE,157,4.0,-999.0,45,-99.99,,,-99.99,,2013-07-17 00:42:00,
2013-07-16 19:52:00,86.0,63.0,-100.00,SSE,157,5.0,-999.0,46,-99.99,,,-99.99,,2013-07-17 00:52:00,
2013-07-16 20:01:00,86.0,63.0,-100.00,SSE,157,5.0,-999.0,47,-99.99,,,-99.99,,2013-07-17 01:01:00,
2013-07-16 20:22:00,85.0,64.0,-100.00,South,180,3.0,-999.0,49,-99.99,,,-99.99,,2013-07-17 01:22:00,
2013-07-16 20:32:00,84.0,64.0,-100.00,South,180,3.0,-999.0,50,-99.99,,,-99.99,,2013-07-17 01:32:00,
2013-07-16 20:43:00,84.0,64.0,-100.00,South,180,3.0,-999.0,50,-99.99,,,-99.99,,2013-07-17 01:43:00,
2013-07-16 20:53:00,83.0,66.0,-100.00,SSE,157,2.0,-999.0,57,-99.99,,,-99.99,,2013-07-17 01:53:00,
2013-07-16 21:01:00,83.0,65.0,-100.00,South,180,2.0,-999.0,55,-99.99,,,-99.99,,2013-07-17 02:01:00,
2013-07-16 21:11:00,83.0,65.0,-100.00,South,180,2.0,-999.0,55,-99.99,,,-99.99,,2013-07-17 02:11:00,
2013-07-16 21:22:00,81.0,65.0,-100.00,South,180,2.0,-999.0,58,-99.99,,,-99.99,,2013-07-17 02:22:00,
2013-07-16 21:32:00,81.0,65.0,-100.00,South,180,2.0,-999.0,59,-99.99,,,-99.99,,2013-07-17 02:32:00,
2013-07-16 21:43:00,81.0,65.0,-100.00,South,180,2.0,-999.0,59,-99.99,,,-99.99,,2013-07-17 02:43:00,
2013-07-16 21:53:00,79.0,66.0,-100.00,SE,135,2.0,-999.0,64,-99.99,,,-99.99,,2013-07-17 02:53:00,
2013-07-16 22:01:00,78.0,66.0,-100.00,SE,135,3.0,-999.0,66,-99.99,,,-99.99,,2013-07-17 03:01:00,
2013-07-16 22:22:00,78.0,65.0,-100.00,SSE,157,2.0,-999.0,63,-99.99,,,-99.99,,2013-07-17 03:22:00,
2013-07-16 22:32:00,78.0,66.0,-100.00,SE,135,3.0,-999.0,66,-99.99,,,-99.99,,2013-07-17 03:32:00,
2013-07-16 22:43:00,78.0,66.0,-100.00,SE,135,3.0,-999.0,66,-99.99,,,-99.99,,2013-07-17 03:43:00,
2013-07-16 22:53:00,76.0,65.0,-100.00,SE,135,4.0,-999.0,70,-99.99,,,-99.99,,2013-07-17 03:53:00,
2013-07-16 23:01:00,75.0,66.0,-100.00,SE,135,2.0,-999.0,72,-99.99,,,-99.99,,2013-07-17 04:01:00,
2013-07-16 23:22:00,75.0,66.0,-100.00,SE,135,4.0,-999.0,74,-99.99,,,-99.99,,2013-07-17 04:22:00,
2013-07-16 23:32:00,75.0,67.0,-100.00,SE,135,4.0,-999.0,76,-99.99,,,-99.99,,2013-07-17 04:32:00,
2013-07-16 23:43:00,75.0,67.0,-100.00,SE,135,4.0,-999.0,76,-99.99,,,-99.99,,2013-07-17 04:43:00,
2013-07-16 23:53:00,75.0,68.0,-100.00,SE,135,3.0,-999.0,78,-99.99,,,-99.99,,2013-07-17 04:53:00,